GW5514 Weather Reports


time (UTC)temp
C
wind
direction
speed
KPH
gust
KPH
rain 1hr
cm
rain 24hr
cm
rain mn
cm
humidity
%
barometer
mb
20260502123033 8 360 0.0 0.0 0.00 0.00 0.00 28 1019.9
20260502121506 7 5 0.0 0.0 0.00 0.00 0.00 29 1019.9
20260502113027 7 346 0.0 0.0 0.00 0.00 0.00 31 1019.8
20260502111522 7 334 0.0 0.0 0.00 0.00 0.00 32 1020.0
20260502110027 7 324 0.0 0.0 0.00 0.00 0.00 33 1020.0
20260502104527 8 286 0.0 0.0 0.00 0.00 0.00 33 1020.0
20260502103030 7 315 0.0 0.0 0.00 0.00 0.00 34 1020.0
20260502101534 8 318 0.0 0.0 0.00 0.00 0.00 35 1020.1
20260502091528 9 308 0.0 0.0 0.00 0.00 0.00 35 1020.0
20260502071509 10 344 0.0 0.0 0.00 0.00 0.00 36 1019.8
20260502064519 10 301 0.0 0.0 0.00 0.00 0.00 36 1019.6
20260502061529 11 317 0.0 0.0 0.00 0.00 0.00 36 1019.2
20260502060027 11 311 0.0 0.0 0.00 0.00 0.00 35 1019.0
20260502054516 11 336 0.0 0.0 0.00 0.00 0.00 35 1018.9
20260502053023 11 319 0.0 0.0 0.00 0.00 0.00 35 1018.7
20260502051530 12 315 0.0 0.0 0.00 0.00 0.00 34 1018.7
20260502050035 12 287 0.0 0.0 0.00 0.00 0.00 33 1018.7
20260502044526 12 294 0.0 0.0 0.00 0.00 0.00 32 1018.6
20260502043027 13 305 0.0 0.0 0.00 0.00 0.00 31 1018.5
20260502041537 13 296 0.0 0.0 0.00 0.00 0.00 31 1018.2
20260502040022 13 17 0.0 0.0 0.00 0.00 0.00 31 1018.0
20260502034528 13 47 0.0 0.0 0.00 0.00 0.00 31 1017.7
20260502033028 13 48 0.0 0.0 0.00 0.00 0.00 32 1017.5
20260502030022 15 43 0.0 0.0 0.00 0.00 0.00 28 1017.1
20260502024525 16 75 0.0 0.0 0.00 0.00 0.00 24 1016.8
20260502023026 16 58 0.0 0.0 0.00 0.00 0.00 25 1016.7
20260502021527 16 72 0.0 0.0 0.00 0.00 0.00 25 1016.5
20260502014527 17 73 0.0 0.0 0.00 0.00 0.00 22 1016.3
20260502013029 18 65 0.0 0.0 0.00 0.00 0.00 21 1016.1
20260502011527 18 65 0.0 0.0 0.00 0.00 0.00 22 1016.0
20260502010023 18 85 0.0 0.0 0.00 0.00 0.00 21 1015.8
20260502003025 19 159 0.0 0.0 0.00 0.00 0.00 18 1015.7
20260502001504 18 107 0.0 0.0 0.00 0.00 0.00 19 1015.7
20260502000008 18 131 0.0 0.0 0.00 0.00 0.00 18 1015.7
20260501234506 18 109 0.0 0.0 0.00 0.00 0.00 18 1015.7
20260501230009 17 94 0.0 0.0 0.00 0.00 0.00 22 1015.7
20260501224507 17 53 0.0 0.0 0.00 0.00 0.00 25 1015.5
20260501223008 17 65 14.5 27.4 0.00 0.00 0.00 24 1015.6
20260501220008 20 360 0.0 0.0 0.00 0.00 0.00 15 1015.3
20260501214508 20 300 0.0 0.0 0.00 0.00 0.00 15 1015.4
20260501213012 19 292 0.0 0.0 0.00 0.00 0.00 16 1015.5
20260501211509 20 52 0.0 0.0 0.00 0.00 0.00 17 1015.7
20260501204514 19 72 0.0 0.0 0.00 0.00 0.00 16 1015.9
20260501203011 20 46 0.0 0.0 0.00 0.00 0.00 17 1015.9
20260501201512 20 345 0.0 0.0 0.00 0.00 0.00 16 1015.9
20260501200013 19 352 0.0 0.0 0.00 0.00 0.00 16 1016.0
20260501194513 19 50 0.0 0.0 0.00 0.00 0.00 19 1016.0
20260501193012 20 68 0.0 0.0 0.00 0.00 0.00 18 1016.2
20260501191512 20 52 0.0 0.0 0.00 0.00 0.00 17 1016.5
20260501190014 21 211 0.0 0.0 0.00 0.00 0.00 18 1016.5
20260501184516 19 223 0.0 0.0 0.00 0.00 0.00 19 1016.7
20260501183014 20 257 0.0 0.0 0.00 0.00 0.00 19 1017.1
20260501181518 19 186 0.0 0.0 0.00 0.00 0.00 19 1017.1
20260501180018 18 40 0.0 0.0 0.00 0.00 0.00 21 1017.6
20260501174518 18 21 0.0 0.0 0.00 0.00 0.00 26 1017.8
20260501173019 18 90 0.0 0.0 0.00 0.00 0.00 22 1017.7
20260501171519 17 80 0.0 16.1 0.00 0.00 0.00 23 1017.7
20260501170019 17 89 0.0 0.0 0.00 0.00 0.00 24 1017.6
20260501164523 17 82 0.0 0.0 0.00 0.00 0.00 24 1017.8
20260501163018 17 61 0.0 0.0 0.00 0.00 0.00 27 1017.8
20260501161521 16 82 0.0 0.0 0.00 0.00 0.00 27 1017.9
20260501160025 16 84 0.0 0.0 0.00 0.00 0.00 28 1017.9
20260501154522 15 89 0.0 0.0 0.00 0.00 0.00 29 1017.8
20260501153022 15 83 0.0 0.0 0.00 0.00 0.00 29 1017.9
20260501151511 15 50 0.0 0.0 0.00 0.00 0.00 32 1017.8
20260501150015 13 332 0.0 0.0 0.00 0.00 0.00 32 1017.9
20260501144520 12 5 0.0 0.0 0.00 0.00 0.00 33 1017.8
20260501143024 11 346 0.0 0.0 0.00 0.00 0.00 33 1017.8
20260501141507 11 324 0.0 0.0 0.00 0.00 0.00 34 1017.7
20260501140016 11 321 0.0 8.0 0.00 0.00 0.00 33 1017.5
20260501134516 10 246 3.2 6.4 0.00 0.00 0.00 35 1017.3